Find OneWeb SL0015

NORAD ID: 61594 Int'l Des: 2024-188 Owner: ONEWEBE Country: UK Constellation: oneweb operational
LEOCIRCULARPOLARONEWEB_TYPE

リアルタイム位置

3D地球を読み込み中...

OneWeb SL0015について

説明を読み込み中...

次回通過

Passes for default location (London). Set your location on the main map for personalized predictions.

高度履歴

Loading altitude history...

軌道要素

1 61594U 24188A 26124.74400265 .00000011 00000-0 -46052-5 0 9996
2 61594 87.8921 29.7323 0002096 94.6316 265.5051 13.11415831 78764
Epoch: May 4, 2026 • Age: 8 hours

現在のステータス

高度 1229.3 km
速度 7.25 km/s
衛星直下点 77.20°N, 152.4°E
打ち上げ日 Oct 20, 2024
運用期間 1.5 years
タイプ internet

技術仕様

分類 Payload
質量 148.00 kg
乾燥質量 140.00 kg
総質量 148.00 kg
長さ 1.30 m
直径 1.00 m
スパン 5.00 m
形状 Trapezoid+2 pan
製造者 ONEWUS
バスタイプ ARROW
フェーズステータス In Orbit
所有者/国 ONEWEBE/UK

Most Searched